User: anonymous
Location: Hamburg
(53.5500°N, 10.0000°E)
Time: 11:13:05
(UTC+02:00)
Language:

Iridium 10 - Orbit

View from above orbital plane
View from above orbital plane
View from above satellite
View from above satellite

Ground track
Ground track

The orbit data is extracted from the following two-line orbital elements,

1 24839U 97030D   14244.49451304  .00000103  00000-0  29602-4 0  9818
2 24839 086.3930 056.3271 0002100 109.0573 303.2336 14.34218442900809
Epoch (UTC): 01 September 2014 11:52:05
Eccentricity: 0.0002100
inclination: 86.3930°
perigee height: 776 km
apogee height: 779 km
right ascension of ascending node: 56.3271°
argument of perigee: 109.0573°
revolutions per day: 14.34218442
mean anomaly at epoch: 303.2336°
orbit number at epoch: 90080

The dashed part of the orbit path shows where the satellite is in the earth's shadow,  

DLR